Regional Weather Roundup
Issued by NWS

Home | Current Version | Previous Version | Text Only | Print | Product List | Glossary Off
Versions: 1 2 3 4 5 6 7 8 9 10 11 12 13 14 15 16 17 18 19 20 21 22 23 24 25 26 27 28 29 30 31 32 33 34 35 36 37 38 39 40 41 42 43 44 45 46 47 48 49 50

000
ASUS43 KOAX 260602
RWRNE

WEATHER ROUNDUP FOR NEBRASKA
NATIONAL WEATHER SERVICE OMAHA NE
1200 AM CST WED NOV 26 2014

NOTES: SATELLITE DATA IS BEING USED TO AUGMENT CLOUD COVER ABOVE
       12000 FEET.
       "FAIR" INDICATES FEW OR NO CLOUDS BELOW 12,000 FEET WITH NO
       SIGNIFICANT WEATHER AND/OR OBSTRUCTIONS TO VISIBILITY.

  * THESE STATIONS DO NOT REPORT WEATHER SUCH AS RAIN...SNOW OR FOG.

NEZ001>004-019>022-054>056-260700-
NEBRASKA PANHANDLE

CITY           SKY/WX    TMP DP  RH WIND       PRES   REMARKS
SCOTTSBLUFF    CLOUDY    32  26  78 NW14      30.07R WCI  22
6HR MIN TEMP:  31; 6HR MAX TEMP:  35; 6HR PCP:  0.01;

ALLIANCE       CLOUDY    33  22  63 NW24G35   30.00R WCI  20
6HR MIN TEMP:  33; 6HR MAX TEMP:  38;

CHADRON        CLOUDY    44  24  45 NW24G37   30.03R
6HR MIN TEMP:  41; 6HR MAX TEMP:  49;

SIDNEY         CLOUDY    31  27  85 NW20      30.04S WCI  19
6HR MIN TEMP:  31; 6HR MAX TEMP:  33; 6HR PCP:  0.01;

$$

NEZ057>060-069>072-079>082-260700-
SOUTHWEST NEBRASKA

CITY           SKY/WX    TMP DP  RH WIND       PRES   REMARKS
NORTH PLATTE   CLOUDY    37  30  75 NW8       29.97R WCI  31
6HR MIN TEMP:  36; 6HR MAX TEMP:  44; 6HR PCP: TRACE;

IMPERIAL       CLOUDY    37  30  75 NW16G28   30.02R WCI  28
6HR MIN TEMP:  37; 6HR MAX TEMP:  46;

LEXINGTON      CLOUDY    40  29  65 NW14G20   29.95R WCI  32
MCCOOK         CLOUDY    42  31  64 NW12      29.99R
6HR MIN TEMP:  39; 6HR MAX TEMP:  48;

$$

NEZ005>010-023>029-035>040-094-260700-
NORTH CENTRAL NEBRASKA

CITY           SKY/WX    TMP DP  RH WIND       PRES   REMARKS
VALENTINE      CLOUDY    36  25  64 NW23G35   29.92R WCI  24
6HR MIN TEMP:  35; 6HR MAX TEMP:  38; 6HR PCP: TRACE;

BROKEN BOW     MOCLDY    38  26  62 NW20      29.92R WCI  28
6HR MIN TEMP:  38; 6HR MAX TEMP:  43;

ORD            CLEAR     36  28  73 W17       29.89R WCI  26
6HR MIN TEMP:  28; 6HR MAX TEMP:  41; 6HR PCP: TRACE;

$$

NEZ041-046>049-061>064-073>077-083>087-260700-
SOUTH CENTRAL NEBRASKA

CITY           SKY/WX    TMP DP  RH WIND       PRES   REMARKS
GRAND ISLAND   PTCLDY    36  29  75 W12       29.90R WCI  28
6HR MIN TEMP:  36; 6HR MAX TEMP:  44;

AURORA         MOCLDY    37  30  77 NW10      29.88R WCI  29
HASTINGS       CLOUDY    39  28  64 NW13      29.90R WCI  31
6HR MIN TEMP:  38; 6HR MAX TEMP:  45;

KEARNEY *      CLOUDY    39  28  65 W16G23    29.93R WCI  30
YORK           MOCLDY    37  32  81 NW13      29.87R WCI  29
$$

NEZ011>018-030>034-042>045-260700-
NORTHEAST NEBRASKA

CITY           SKY/WX    TMP DP  RH WIND       PRES   REMARKS
NORFOLK        CLOUDY    36  34  92 W10       29.82R WCI  28
6HR MIN TEMP:  36; 6HR MAX TEMP:  42; 6HR PCP: TRACE;

BLAIR          LGT RAIN  40  32  75 S20G33    29.82F WCI  30
COLUMBUS *     CLOUDY    37  30  75 NW16      29.85R WCI  28
$$

NEZ050>053-065>068-078-088>093-260700-
SOUTHEAST NEBRASKA

CITY           SKY/WX    TMP DP  RH WIND       PRES   REMARKS
LINCOLN        CLOUDY    40  33  76 W7        29.86S
6HR MIN TEMP:  40; 6HR MAX TEMP:  44; 6HR PCP: TRACE;

OMAHA EPPLEY   LGT RAIN  40  27  59 S17       29.87S WCI  31
6HR MIN TEMP:  38; 6HR MAX TEMP:  40; 6HR PCP: TRACE;

FALLS CITY     CLOUDY    40  24  53 S12G24    29.91S WCI  33
6HR MIN TEMP:  34; 6HR MAX TEMP:  40;

NEBRASKA CITY  CLOUDY    38  22  50 S10       29.88R WCI  32
PLATTSMOUTH    CLOUDY    38  24  57 S14       29.87S WCI  29
$$

NEZ044-045-051>053-067-260700-
OMAHA AREA

CITY           SKY/WX    TMP DP  RH WIND       PRES   REMARKS
OMAHA EPPLEY   LGT RAIN  40  27  59 S17       29.87S WCI  31
6HR MIN TEMP:  38; 6HR MAX TEMP:  40; 6HR PCP: TRACE;

BLAIR          LGT RAIN  40  32  75 S20G33    29.82F WCI  30
OFFUTT AFB     CLOUDY    38  27  65 S8        29.86F WCI  32
PLATTSMOUTH    CLOUDY    38  24  57 S14       29.87S WCI  29
WAHOO          LGT RAIN  39  34  82 SW10      29.83F WCI  32
$$



USA.gov is the U.S. government's official web portal to all federal, state and local government web resources and services.